Location: Burtsch�tz
(51.0528°N, 12.1764°E)
Time: 14:46:39
(UTC+00:00)

Cosmos 1777 Rocket - Pass Details

Date: 29 October 2020
Orbit: 759 x 775 km, 74.0° (Epoch: 28 November)

Event Time Altitude Azimuth Distance (km) Brightness Sun altitude
Rises 18:30:40 0° 334° (NNW) 3,231 7.7 -25.7°
Reaches altitude 10° 18:33:03 10° 333° (NNW) 2,302 6.9 -26.0°
Maximum altitude 18:38:16 79° 249° (WSW) 782 4.0 -26.8°
Enters shadow 18:38:39 73° 201° (SSW) 798 4.0 -26.9°
